Check out our new BloomSky Weather System.

Active alerts


No alerts


Thunder radar  blitzortung!


Rain radar more information rain snow radar


Visit our other weather sites:

Template documentation
and downloads

And another site



Weather Underground History page Text

Daily Summary for May 20, 2017 Units:  Metric    English   Both
« Previous Day
Next Day »
Daily Weekly Monthly Yearly Custom
  High: Low: Average:
Temperature: 32.5 °C 25.1 °C 28.1 °C
Dew Point: 25.1 °C 23.3 °C 24.1 °C
Humidity: 96 % 60 % 80 %
Wind Speed: 17.7 km/h 0 km/h 5.3 km/h
Wind Gust: 25.7 km/h - -
Wind:- - SSE
Pressure: 1013.8 hPa 1008.7 hPa -
Precipitation: 0.51 mm    
Historical Graphs
 
 
Tabular Data for May 20, 2017
Time Temperature Dew Point Pressure Wind Wind Speed Wind Gust Humidity Rainfall Rate (Hourly)
00:05 26.8 °C 23.9 °C 1009.7 hPa SSE 9.7 km/h 17.7 km/h 84 % 0 mm
00:10 26.8 °C 23.9 °C 1009.7 hPa ESE 12.9 km/h 25.7 km/h 84 % 0 mm
00:15 26.8 °C 23.9 °C 1009.7 hPa SSE 12.9 km/h 25.7 km/h 84 % 0 mm
00:20 26.8 °C 24.1 °C 1009.7 hPa East 11.3 km/h 25.7 km/h 85 % 0 mm
00:25 26.8 °C 24.1 °C 1009.7 hPa ESE 6.4 km/h 20.9 km/h 85 % 0 mm
00:30 26.8 °C 24.1 °C 1009.7 hPa SE 11.3 km/h 20.9 km/h 85 % 0 mm
00:35 26.7 °C 24 °C 1009.7 hPa SE 12.9 km/h 24.1 km/h 85 % 0 mm
00:40 26.7 °C 24 °C 1010 hPa SSE 8 km/h 24.1 km/h 85 % 0 mm
00:45 26.7 °C 24 °C 1010 hPa South 8 km/h 24.1 km/h 85 % 0 mm
00:50 26.7 °C 24 °C 1010 hPa SE 6.4 km/h 19.3 km/h 85 % 0 mm
00:55 26.7 °C 24 °C 1009.7 hPa SE 4.8 km/h 19.3 km/h 85 % 0 mm
01:00 26.7 °C 24 °C 1009.7 hPa SE 8 km/h 17.7 km/h 85 % 0 mm
01:05 26.5 °C 24 °C 1009.7 hPa SSE 4.8 km/h 14.5 km/h 86 % 0 mm
01:10 26.3 °C 24 °C 1009.7 hPa SSE 6.4 km/h 17.7 km/h 87 % 0 mm
01:15 26.2 °C 24.1 °C 1009.4 hPa ESE 8 km/h 17.7 km/h 88 % 0 mm
01:20 26.1 °C 24.1 °C 1009.4 hPa SSE 8 km/h 17.7 km/h 89 % 0 mm
01:25 26 °C 24 °C 1009.4 hPa SE 6.4 km/h 17.7 km/h 89 % 0 mm
01:30 25.9 °C 23.9 °C 1009.4 hPa SE 3.2 km/h 17.7 km/h 89 % 0 mm
01:35 25.8 °C 23.8 °C 1009 hPa ESE 11.3 km/h 14.5 km/h 89 % 0 mm
01:40 25.8 °C 23.8 °C 1009.4 hPa SE 6.4 km/h 12.9 km/h 89 % 0 mm
01:45 25.8 °C 23.8 °C 1009 hPa SE 4.8 km/h 12.9 km/h 89 % 0 mm
01:50 25.8 °C 23.8 °C 1009 hPa ESE 9.7 km/h 12.9 km/h 89 % 0 mm
01:55 25.8 °C 23.8 °C 1009 hPa ESE 6.4 km/h 14.5 km/h 89 % 0 mm
02:00 25.8 °C 23.8 °C 1009 hPa SE 6.4 km/h 14.5 km/h 89 % 0 mm
02:05 25.7 °C 23.7 °C 1009 hPa SE 3.2 km/h 14.5 km/h 89 % 0 mm
02:10 25.7 °C 23.7 °C 1008.7 hPa SE 11.3 km/h 14.5 km/h 89 % 0 mm
02:15 25.7 °C 23.7 °C 1008.7 hPa SSE 6.4 km/h 12.9 km/h 89 % 0 mm
02:20 25.7 °C 23.7 °C 1009 hPa SE 4.8 km/h 12.9 km/h 89 % 0 mm
02:25 25.7 °C 23.7 °C 1008.7 hPa SSE 9.7 km/h 17.7 km/h 89 % 0 mm
02:30 25.7 °C 23.7 °C 1008.7 hPa SSE 6.4 km/h 17.7 km/h 89 % 0 mm
02:35 25.6 °C 23.6 °C 1008.7 hPa ESE 8 km/h 17.7 km/h 89 % 0 mm
02:40 25.6 °C 23.6 °C 1009 hPa SE 4.8 km/h 12.9 km/h 89 % 0 mm
02:45 25.6 °C 23.6 °C 1009 hPa SE 3.2 km/h 12.9 km/h 89 % 0 mm
02:50 25.6 °C 23.6 °C 1009 hPa SE 9.7 km/h 12.9 km/h 89 % 0 mm
02:55 25.6 °C 23.6 °C 1009 hPa SSE 3.2 km/h 12.9 km/h 89 % 0 mm
03:00 25.5 °C 23.6 °C 1008.7 hPa ESE 4.8 km/h 9.7 km/h 89 % 0 mm
03:05 25.5 °C 23.7 °C 1009 hPa ESE 6.4 km/h 11.3 km/h 90 % 0 mm
03:10 25.5 °C 23.7 °C 1008.7 hPa SE 4.8 km/h 11.3 km/h 90 % 0 mm
03:15 25.5 °C 23.7 °C 1008.7 hPa ESE 9.7 km/h 11.3 km/h 90 % 0 mm
03:20 25.5 °C 23.7 °C 1008.7 hPa SE 6.4 km/h 11.3 km/h 90 % 0 mm
03:25 25.5 °C 23.7 °C 1008.7 hPa SSE 6.4 km/h 16.1 km/h 90 % 0 mm
03:30 25.5 °C 23.7 °C 1008.7 hPa SE 4.8 km/h 16.1 km/h 90 % 0 mm
03:35 25.5 °C 23.7 °C 1008.7 hPa East 4.8 km/h 16.1 km/h 90 % 0 mm
03:40 25.5 °C 23.7 °C 1008.7 hPa SSE 3.2 km/h 12.9 km/h 90 % 0 mm
03:45 25.5 °C 23.7 °C 1008.7 hPa SSE 6.4 km/h 11.3 km/h 90 % 0 mm
03:50 25.5 °C 23.7 °C 1008.7 hPa ESE 3.2 km/h 11.3 km/h 90 % 0 mm
03:55 25.6 °C 23.8 °C 1009 hPa SE 1.6 km/h 11.3 km/h 90 % 0 mm
04:00 25.6 °C 23.8 °C 1009 hPa ESE 4.8 km/h 11.3 km/h 90 % 0 mm
04:05 25.6 °C 23.8 °C 1009 hPa East 4.8 km/h 11.3 km/h 90 % 0 mm
04:10 25.6 °C 23.8 °C 1009 hPa SE 1.6 km/h 11.3 km/h 90 % 0 mm
04:15 25.6 °C 23.6 °C 1009 hPa SE 3.2 km/h 9.7 km/h 89 % 0 mm
04:20 25.6 °C 23.6 °C 1009 hPa SE 6.4 km/h 12.9 km/h 89 % 0 mm
04:25 25.6 °C 23.6 °C 1009 hPa SE 8 km/h 12.9 km/h 89 % 0 mm
04:30 25.6 °C 23.6 °C 1009 hPa ESE 4.8 km/h 12.9 km/h 89 % 0 mm
04:35 25.6 °C 23.6 °C 1009 hPa SE 8 km/h 11.3 km/h 89 % 0 mm
04:40 25.6 °C 23.6 °C 1009.4 hPa SE 3.2 km/h 12.9 km/h 89 % 0 mm
04:45 25.6 °C 23.6 °C 1009.4 hPa South 4.8 km/h 12.9 km/h 89 % 0 mm
04:50 25.6 °C 23.6 °C 1009.4 hPa South 3.2 km/h 12.9 km/h 89 % 0 mm
04:55 25.6 °C 23.6 °C 1009.4 hPa SE 4.8 km/h 9.7 km/h 89 % 0 mm
05:00 25.6 °C 23.6 °C 1009.4 hPa SE 3.2 km/h 9.7 km/h 89 % 0 mm
05:05 25.6 °C 23.6 °C 1009.4 hPa SSE 4.8 km/h 11.3 km/h 89 % 0 mm
05:10 25.6 °C 23.6 °C 1009.4 hPa SE 3.2 km/h 11.3 km/h 89 % 0 mm
05:15 25.6 °C 23.6 °C 1009.4 hPa ESE 4.8 km/h 11.3 km/h 89 % 0 mm
05:20 25.5 °C 23.6 °C 1009.4 hPa SE 6.4 km/h 8 km/h 89 % 0 mm
05:25 25.4 °C 23.5 °C 1009.4 hPa SE 11.3 km/h 11.3 km/h 89 % 0 mm
05:30 25.4 °C 23.6 °C 1009.4 hPa SSE 4.8 km/h 12.9 km/h 90 % 0 mm
05:36 25.3 °C 23.5 °C 1009.4 hPa South 4.8 km/h 12.9 km/h 90 % 0 mm
05:41 25.3 °C 23.5 °C 1009.4 hPa SE 4.8 km/h 12.9 km/h 90 % 0 mm
05:46 25.2 °C 23.4 °C 1009.4 hPa South 1.6 km/h 8 km/h 90 % 0 mm
05:51 25.1 °C 23.3 °C 1009.7 hPa ESE 1.6 km/h 8 km/h 90 % 0 mm
05:56 25.1 °C 23.5 °C 1009.7 hPa ESE 1.6 km/h 8 km/h 91 % 0 mm
06:01 25.1 °C 23.5 °C 1010 hPa SSE 3.2 km/h 4.8 km/h 91 % 0 mm
06:06 25.1 °C 23.5 °C 1010 hPa Calm   6.4 km/h 91 % 0 mm
06:11 25.1 °C 23.5 °C 1010.4 hPa SSW 1.6 km/h 6.4 km/h 91 % 0 mm
06:16 25.1 °C 23.5 °C 1010.4 hPa South 1.6 km/h 6.4 km/h 91 % 0 mm
06:21 25.1 °C 23.5 °C 1010.4 hPa SSW 1.6 km/h 3.2 km/h 91 % 0 mm
06:26 25.2 °C 23.6 °C 1010.7 hPa Calm   4.8 km/h 91 % 0 mm
06:31 25.2 °C 23.6 °C 1010.7 hPa SE 1.6 km/h 4.8 km/h 91 % 0 mm
06:36 25.2 °C 23.6 °C 1010.7 hPa SW 1.6 km/h 4.8 km/h 91 % 0 mm
06:41 25.2 °C 23.6 °C 1010.7 hPa Calm   3.2 km/h 91 % 0 mm
06:46 25.3 °C 23.7 °C 1010.7 hPa Calm   3.2 km/h 91 % 0 mm
06:51 25.3 °C 23.7 °C 1011.1 hPa SSW 1.6 km/h 4.8 km/h 91 % 0 mm
06:56 25.3 °C 23.7 °C 1011.1 hPa SSW 3.2 km/h 4.8 km/h 91 % 0 mm
07:01 25.4 °C 23.8 °C 1011.1 hPa SSW 1.6 km/h 4.8 km/h 91 % 0 mm
07:06 25.4 °C 23.8 °C 1011.1 hPa SE 3.2 km/h 4.8 km/h 91 % 0 mm
07:11 25.5 °C 23.9 °C 1011.4 hPa Calm   4.8 km/h 91 % 0 mm
07:16 25.6 °C 24 °C 1011.4 hPa Calm   4.8 km/h 91 % 0 mm
07:21 25.6 °C 23.8 °C 1011.7 hPa Calm   3.2 km/h 90 % 0 mm
07:26 25.7 °C 24.1 °C 1011.7 hPa Calm   3.2 km/h 91 % 0 mm
07:31 25.8 °C 24 °C 1011.7 hPa Calm   1.6 km/h 90 % 0 mm
07:36 25.8 °C 24 °C 1011.7 hPa Calm   1.6 km/h 90 % 0 mm
07:41 26 °C 24.2 °C 1011.7 hPa Calm   1.6 km/h 90 % 0 mm
07:46 26.1 °C 24.3 °C 1011.7 hPa SE 1.6 km/h 3.2 km/h 90 % 0 mm
07:51 26.3 °C 24.3 °C 1011.7 hPa Calm   3.2 km/h 89 % 0 mm
07:56 26.5 °C 24.3 °C 1011.7 hPa SE 4.8 km/h 4.8 km/h 88 % 0 mm
08:01 26.6 °C 24.3 °C 1011.7 hPa SSE 6.4 km/h 6.4 km/h 87 % 0 mm
08:06 26.5 °C 24.2 °C 1011.7 hPa SSE 3.2 km/h 8 km/h 87 % 0 mm
08:11 26.4 °C 24.1 °C 1011.4 hPa SSW 3.2 km/h 8 km/h 87 % 0 mm
08:16 26.3 °C 24 °C 1011.4 hPa Calm   8 km/h 87 % 0 mm
08:21 26.4 °C 24.2 °C 1011.4 hPa Calm   6.4 km/h 88 % 0 mm
08:26 26.4 °C 24.1 °C 1011.4 hPa SE 1.6 km/h 6.4 km/h 87 % 0 mm
08:31 26.4 °C 24.2 °C 1011.4 hPa ESE 4.8 km/h 4.8 km/h 88 % 0 mm
08:36 26.6 °C 24.4 °C 1011.4 hPa Calm   6.4 km/h 88 % 0 mm
08:41 27 °C 24.8 °C 1011.7 hPa ESE 3.2 km/h 6.4 km/h 88 % 0 mm
08:47 27.3 °C 24.6 °C 1011.4 hPa East 3.2 km/h 6.4 km/h 85 % 0 mm
08:52 27.4 °C 24.7 °C 1011.4 hPa East 6.4 km/h 8 km/h 85 % 0 mm
08:57 27.6 °C 24.6 °C 1011.4 hPa Calm   8 km/h 84 % 0 mm
09:02 27.8 °C 24.8 °C 1011.4 hPa SE 3.2 km/h 9.7 km/h 84 % 0 mm
09:07 28.1 °C 24.5 °C 1011.4 hPa SE 4.8 km/h 9.7 km/h 81 % 0 mm
09:12 28.3 °C 24.3 °C 1011.4 hPa SSW 6.4 km/h 11.3 km/h 79 % 0 mm
09:17 28.4 °C 24.6 °C 1011.7 hPa SE 8 km/h 14.5 km/h 80 % 0 mm
09:22 28.6 °C 24.8 °C 1011.7 hPa SE 9.7 km/h 14.5 km/h 80 % 0 mm
09:27 28.9 °C 25.1 °C 1011.7 hPa SE 6.4 km/h 14.5 km/h 80 % 0 mm
09:32 29.2 °C 25 °C 1011.7 hPa SE 9.7 km/h 11.3 km/h 78 % 0 mm
09:37 29.1 °C 24.9 °C 1011.7 hPa SSE 3.2 km/h 11.3 km/h 78 % 0 mm
09:42 29.1 °C 25.1 °C 1011.7 hPa NE 1.6 km/h 11.3 km/h 79 % 0 mm
09:47 29.3 °C 25.1 °C 1011.7 hPa SE 8 km/h 11.3 km/h 78 % 0 mm
09:52 29.3 °C 24.8 °C 1011.7 hPa SE 9.7 km/h 11.3 km/h 77 % 0 mm
09:57 29.3 °C 25.1 °C 1011.7 hPa East 3.2 km/h 12.9 km/h 78 % 0 mm
10:02 29.4 °C 24.9 °C 1012.1 hPa South 6.4 km/h 12.9 km/h 77 % 0 mm
10:07 29.6 °C 24.7 °C 1012.1 hPa ESE 4.8 km/h 12.9 km/h 75 % 0 mm
10:12 29.6 °C 24.7 °C 1012.1 hPa SSE 12.9 km/h 12.9 km/h 75 % 0 mm
10:17 29.8 °C 24.7 °C 1011.7 hPa South 4.8 km/h 12.9 km/h 74 % 0 mm
10:22 30.1 °C 24.7 °C 1012.1 hPa ESE 11.3 km/h 12.9 km/h 73 % 0 mm
10:27 30.1 °C 25 °C 1012.1 hPa SE 4.8 km/h 14.5 km/h 74 % 0 mm
10:32 30.1 °C 24.5 °C 1012.1 hPa SSW 4.8 km/h 16.1 km/h 72 % 0 mm
10:37 30.2 °C 24.6 °C 1012.1 hPa SE 8 km/h 16.1 km/h 72 % 0 mm
10:42 30.5 °C 24.9 °C 1012.4 hPa Calm   16.1 km/h 72 % 0 mm
10:47 30.7 °C 24.4 °C 1012.4 hPa ESE 6.4 km/h 14.5 km/h 69 % 0 mm
10:52 30.4 °C 24.3 °C 1012.4 hPa SE 6.4 km/h 14.5 km/h 70 % 0 mm
10:57 30.6 °C 24.5 °C 1012.4 hPa ESE 9.7 km/h 14.5 km/h 70 % 0 mm
11:02 30.9 °C 24.1 °C 1012.4 hPa ESE 4.8 km/h 17.7 km/h 67 % 0 mm
11:04 31.1 °C 24.2 °C 1012.4 hPa SSE 12.9 km/h 17.7 km/h 67 % 0 mm
11:09 31.3 °C 24.2 °C 1012.1 hPa Calm   17.7 km/h 66 % 0 mm
11:14 31.5 °C 24.1 °C 1012.4 hPa SE 6.4 km/h 17.7 km/h 65 % 0 mm
11:19 31.7 °C 24 °C 1012.1 hPa SSE 16.1 km/h 16.1 km/h 64 % 0 mm
11:24 31.7 °C 23.8 °C 1012.1 hPa South 8 km/h 17.7 km/h 63 % 0 mm
11:29 32 °C 24.3 °C 1012.1 hPa ESE 9.7 km/h 17.7 km/h 64 % 0 mm
11:34 31.8 °C 23.6 °C 1012.1 hPa SSW 6.4 km/h 20.9 km/h 62 % 0 mm
11:39 31.7 °C 23.5 °C 1012.4 hPa SSE 8 km/h 20.9 km/h 62 % 0 mm
13:19 32 °C 23.5 °C 1011.7 hPa SE 9.7 km/h 14.5 km/h 61 % 0 mm
13:24 32 °C 23.5 °C 1011.7 hPa SE 8 km/h 14.5 km/h 61 % 0 mm
13:29 32.2 °C 24 °C 1011.4 hPa SSE 9.7 km/h 14.5 km/h 62 % 0 mm
13:34 32.1 °C 23.9 °C 1011.4 hPa SSW 4.8 km/h 14.5 km/h 62 % 0 mm
13:39 31.9 °C 24 °C 1011.4 hPa SSW 6.4 km/h 17.7 km/h 63 % 0 mm
13:44 31.8 °C 23.9 °C 1011.4 hPa South 6.4 km/h 17.7 km/h 63 % 0 mm
13:49 31.9 °C 24 °C 1011.1 hPa SSW 4.8 km/h 17.7 km/h 63 % 0 mm
13:54 32.1 °C 24.2 °C 1011.1 hPa SSE 9.7 km/h 17.7 km/h 63 % 0 mm
13:59 31.9 °C 24.5 °C 1011.1 hPa SE 6.4 km/h 12.9 km/h 65 % 0 mm
14:04 31.7 °C 24.3 °C 1010.7 hPa SSE 8 km/h 16.1 km/h 65 % 0 mm
14:09 31.9 °C 24.2 °C 1010.7 hPa SE 6.4 km/h 16.1 km/h 64 % 0 mm
14:14 32.1 °C 24.4 °C 1010.7 hPa SE 9.7 km/h 16.1 km/h 64 % 0 mm
14:19 32.1 °C 24.4 °C 1010.4 hPa South 3.2 km/h 12.9 km/h 64 % 0 mm
14:25 32.5 °C 24.3 °C 1010 hPa ESE 11.3 km/h 12.9 km/h 62 % 0 mm
14:30 32.4 °C 23.9 °C 1009.4 hPa SSE 11.3 km/h 19.3 km/h 61 % 0 mm
14:35 32.2 °C 24.3 °C 1009.4 hPa SSE 9.7 km/h 19.3 km/h 63 % 0 mm
14:40 32.2 °C 24.3 °C 1010 hPa SSE 11.3 km/h 19.3 km/h 63 % 0 mm
14:45 32.4 °C 24.4 °C 1010 hPa South 9.7 km/h 19.3 km/h 63 % 0 mm
14:50 32.2 °C 24 °C 1010 hPa SSE 6.4 km/h 19.3 km/h 62 % 0 mm
14:55 32.4 °C 24.4 °C 1010 hPa SE 11.3 km/h 19.3 km/h 63 % 0 mm
15:00 32.4 °C 23.9 °C 1010 hPa SE 8 km/h 19.3 km/h 61 % 0 mm
15:05 32.3 °C 23.5 °C 1009.7 hPa SSE 11.3 km/h 19.3 km/h 60 % 0 mm
15:10 32.3 °C 23.8 °C 1010 hPa East 6.4 km/h 17.7 km/h 61 % 0 mm
15:15 32.4 °C 23.9 °C 1010 hPa SE 9.7 km/h 17.7 km/h 61 % 0 mm
15:20 32.4 °C 23.9 °C 1009.7 hPa SE 6.4 km/h 17.7 km/h 61 % 0 mm
15:25 32.3 °C 24.4 °C 1009.7 hPa East 14.5 km/h 14.5 km/h 63 % 0 mm
15:30 32.2 °C 24.3 °C 1009.7 hPa ESE 3.2 km/h 16.1 km/h 63 % 0 mm
15:35 32.2 °C 24.5 °C 1009.7 hPa ESE 17.7 km/h 17.7 km/h 64 % 0 mm
15:40 32.1 °C 24.4 °C 1009.4 hPa SSE 12.9 km/h 17.7 km/h 64 % 0 mm
15:45 32.2 °C 24 °C 1009.4 hPa South 12.9 km/h 19.3 km/h 62 % 0 mm
15:50 32.2 °C 24 °C 1009.7 hPa SSW 8 km/h 19.3 km/h 62 % 0 mm
15:55 32.2 °C 24.3 °C 1009.7 hPa SSE 12.9 km/h 19.3 km/h 63 % 0 mm
16:00 32.1 °C 24.4 °C 1009.7 hPa SSE 16.1 km/h 17.7 km/h 64 % 0 mm
16:05 32 °C 24.3 °C 1009.7 hPa South 6.4 km/h 19.3 km/h 64 % 0 mm
16:10 31.8 °C 24.4 °C 1009.7 hPa South 6.4 km/h 19.3 km/h 65 % 0 mm
16:15 31.7 °C 24.6 °C 1009.7 hPa SE 6.4 km/h 20.9 km/h 66 % 0 mm
16:20 31.7 °C 24.6 °C 1010 hPa SE 12.9 km/h 20.9 km/h 66 % 0 mm
16:25 31.6 °C 24.7 °C 1010 hPa East 8 km/h 20.9 km/h 67 % 0 mm
16:30 31.3 °C 24.4 °C 1010 hPa SSE 4.8 km/h 16.1 km/h 67 % 0 mm
16:35 31.2 °C 24.6 °C 1009.7 hPa SE 4.8 km/h 16.1 km/h 68 % 0 mm
16:40 31.2 °C 24.6 °C 1010 hPa ESE 8 km/h 17.7 km/h 68 % 0 mm
16:45 31.2 °C 24.8 °C 1010 hPa ESE 8 km/h 17.7 km/h 69 % 0 mm
16:50 31.2 °C 24.8 °C 1010 hPa SE 11.3 km/h 17.7 km/h 69 % 0 mm
16:55 31.2 °C 24.6 °C 1009.7 hPa ESE 11.3 km/h 16.1 km/h 68 % 0 mm
17:00 31.2 °C 24.6 °C 1009.7 hPa SE 11.3 km/h 16.1 km/h 68 % 0 mm
17:05 31.1 °C 24.5 °C 1009.4 hPa ESE 6.4 km/h 19.3 km/h 68 % 0 mm
17:10 31.1 °C 24.2 °C 1009.4 hPa SE 14.5 km/h 20.9 km/h 67 % 0 mm
17:15 31.1 °C 24.2 °C 1009.4 hPa SE 8 km/h 20.9 km/h 67 % 0 mm
17:20 31.1 °C 24.2 °C 1009.7 hPa SSE 8 km/h 20.9 km/h 67 % 0 mm
17:25 31 °C 24.1 °C 1009.7 hPa SSE 12.9 km/h 19.3 km/h 67 % 0 mm
17:30 30.9 °C 24.3 °C 1009.7 hPa South 6.4 km/h 19.3 km/h 68 % 0 mm
17:35 30.8 °C 24.2 °C 1010 hPa SW 8 km/h 19.3 km/h 68 % 0 mm
17:40 30.8 °C 24.2 °C 1010 hPa SE 9.7 km/h 19.3 km/h 68 % 0 mm
17:45 30.8 °C 24.2 °C 1010 hPa SSW 8 km/h 17.7 km/h 68 % 0 mm
17:50 30.7 °C 24.1 °C 1010.4 hPa SSW 6.4 km/h 19.3 km/h 68 % 0 mm
17:55 30.7 °C 24.4 °C 1010.4 hPa SSE 9.7 km/h 19.3 km/h 69 % 0 mm
18:00 30.6 °C 24.3 °C 1010.4 hPa SE 9.7 km/h 19.3 km/h 69 % 0 mm
18:05 30.5 °C 24.2 °C 1010 hPa SSW 6.4 km/h 17.7 km/h 69 % 0 mm
18:10 30.4 °C 24.3 °C 1010 hPa SSW 8 km/h 14.5 km/h 70 % 0 mm
18:15 30.3 °C 24.2 °C 1010 hPa SSW 6.4 km/h 17.7 km/h 70 % 0 mm
18:20 30.3 °C 24.2 °C 1009.7 hPa SE 9.7 km/h 17.7 km/h 70 % 0 mm
18:25 30.3 °C 24.2 °C 1009.7 hPa SE 8 km/h 17.7 km/h 70 % 0 mm
18:30 30.3 °C 24.2 °C 1009.7 hPa SSE 8 km/h 17.7 km/h 70 % 0 mm
18:35 30.2 °C 24.1 °C 1009.7 hPa SSE 11.3 km/h 17.7 km/h 70 % 0 mm
18:40 30.2 °C 24.1 °C 1010 hPa SSE 4.8 km/h 17.7 km/h 70 % 0 mm
18:45 30.2 °C 24.1 °C 1010 hPa SSW 4.8 km/h 17.7 km/h 70 % 0 mm
18:50 30.2 °C 24.1 °C 1010.4 hPa SE 6.4 km/h 14.5 km/h 70 % 0 mm
18:55 30.1 °C 24.3 °C 1010.7 hPa SSE 4.8 km/h 14.5 km/h 71 % 0 mm
19:00 30.1 °C 24 °C 1010.7 hPa SE 6.4 km/h 14.5 km/h 70 % 0 mm
19:05 30 °C 23.9 °C 1010.4 hPa SSE 12.9 km/h 12.9 km/h 70 % 0 mm
19:10 29.9 °C 24.1 °C 1010 hPa ESE 6.4 km/h 12.9 km/h 71 % 0 mm
19:15 29.9 °C 24.1 °C 1010.4 hPa ESE 6.4 km/h 12.9 km/h 71 % 0 mm
19:20 29.8 °C 24 °C 1010.7 hPa SSW 9.7 km/h 16.1 km/h 71 % 0 mm
19:25 29.7 °C 23.9 °C 1010.7 hPa SE 6.4 km/h 16.1 km/h 71 % 0 mm
19:30 29.7 °C 23.9 °C 1010.7 hPa South 6.4 km/h 16.1 km/h 71 % 0 mm
19:35 29.7 °C 23.9 °C 1010.7 hPa South 4.8 km/h 11.3 km/h 71 % 0 mm
19:40 29.6 °C 23.8 °C 1010.7 hPa SW 3.2 km/h 9.7 km/h 71 % 0 mm
19:45 29.6 °C 23.8 °C 1011.1 hPa ESE 4.8 km/h 8 km/h 71 % 0 mm
19:50 29.6 °C 23.5 °C 1011.1 hPa SE 1.6 km/h 8 km/h 70 % 0 mm
19:55 29.6 °C 23.5 °C 1011.1 hPa SSE 3.2 km/h 8 km/h 70 % 0 mm
20:00 29.5 °C 23.7 °C 1011.1 hPa SE 3.2 km/h 8 km/h 71 % 0 mm
20:05 29.4 °C 23.6 °C 1011.4 hPa ESE 4.8 km/h 8 km/h 71 % 0 mm
20:10 29.4 °C 23.6 °C 1011.7 hPa Calm   8 km/h 71 % 0 mm
20:15 29.3 °C 23.5 °C 1011.7 hPa NE 3.2 km/h 8 km/h 71 % 0 mm
20:20 29.3 °C 23.7 °C 1011.7 hPa Calm   6.4 km/h 72 % 0 mm
20:25 29.2 °C 23.6 °C 1011.7 hPa Calm   3.2 km/h 72 % 0 mm
20:30 29.2 °C 23.9 °C 1012.1 hPa North 3.2 km/h 4.8 km/h 73 % 0 mm
20:35 29.1 °C 24.4 °C 1012.1 hPa Calm   6.4 km/h 76 % 0 mm
20:41 28.7 °C 24.3 °C 1012.1 hPa Calm   9.7 km/h 77 % 0 mm
20:46 28.2 °C 24.2 °C 1011.7 hPa NW 4.8 km/h 12.9 km/h 79 % 0 mm
20:51 27.6 °C 24.2 °C 1012.1 hPa NNW 3.2 km/h 12.9 km/h 82 % 0 mm
20:56 27.3 °C 24.4 °C 1012.1 hPa NNW 3.2 km/h 12.9 km/h 84 % 0 mm
21:01 27.1 °C 24.4 °C 1012.4 hPa Calm   12.9 km/h 85 % 0 mm
21:06 26.9 °C 24.4 °C 1012.4 hPa Calm   9.7 km/h 86 % 0 mm
21:11 26.8 °C 24.3 °C 1012.8 hPa NW 3.2 km/h 8 km/h 86 % 0 mm
21:16 26.7 °C 24.4 °C 1012.8 hPa NNW 1.6 km/h 9.7 km/h 87 % 0 mm
21:21 26.6 °C 24.4 °C 1012.8 hPa WNW 3.2 km/h 9.7 km/h 88 % 0 mm
21:26 26.4 °C 24.2 °C 1012.8 hPa Calm   9.7 km/h 88 % 0 mm
21:31 26.4 °C 24.4 °C 1013.1 hPa Calm   8 km/h 89 % 0 mm
21:36 26.4 °C 24.4 °C 1013.1 hPa Calm   8 km/h 89 % 0 mm
21:41 26.4 °C 24.4 °C 1013.1 hPa Calm   8 km/h 89 % 0 mm
21:46 26.4 °C 24.6 °C 1012.8 hPa Calm   4.8 km/h 90 % 0.25 mm
21:51 26.4 °C 24.6 °C 1012.8 hPa SW 1.6 km/h 1.6 km/h 90 % 0.25 mm
21:56 26.3 °C 24.7 °C 1012.8 hPa Calm   3.2 km/h 91 % 0.25 mm
22:01 26.2 °C 24.6 °C 1012.8 hPa SSW 1.6 km/h 3.2 km/h 91 % 0.51 mm
22:06 26 °C 24.4 °C 1012.8 hPa SSW 1.6 km/h 4.8 km/h 91 % 0.51 mm
22:11 25.9 °C 24.5 °C 1012.8 hPa SSW 3.2 km/h 4.8 km/h 92 % 0.51 mm
22:16 25.8 °C 24.4 °C 1012.4 hPa ESE 1.6 km/h 4.8 km/h 92 % 0.51 mm
22:21 25.8 °C 24.6 °C 1012.8 hPa Calm   4.8 km/h 93 % 0.51 mm
22:26 25.8 °C 24.6 °C 1012.8 hPa NE 1.6 km/h 4.8 km/h 93 % 0.51 mm
22:31 25.7 °C 24.5 °C 1012.8 hPa NW 1.6 km/h 3.2 km/h 93 % 0.51 mm
22:36 25.7 °C 24.7 °C 1013.1 hPa North 1.6 km/h 3.2 km/h 94 % 0.51 mm
22:41 25.7 °C 24.7 °C 1013.1 hPa Calm   3.2 km/h 94 % 0.51 mm
22:46 25.7 °C 24.8 °C 1013.1 hPa NNW 1.6 km/h 4.8 km/h 95 % 0.25 mm
22:51 25.7 °C 24.8 °C 1012.8 hPa Calm   4.8 km/h 95 % 0.25 mm
22:56 25.6 °C 24.7 °C 1013.1 hPa Calm   4.8 km/h 95 % 0.25 mm
23:01 25.5 °C 24.6 °C 1013.1 hPa Calm   4.8 km/h 95 % 0 mm
23:06 25.5 °C 24.6 °C 1013.1 hPa Calm   3.2 km/h 95 % 0 mm
23:11 25.5 °C 24.6 °C 1013.1 hPa Calm   3.2 km/h 95 % 0 mm
23:16 25.6 °C 24.9 °C 1013.1 hPa Calm   1.6 km/h 96 % 0 mm
23:21 25.5 °C 24.6 °C 1013.4 hPa Calm   1.6 km/h 95 % 0 mm
23:26 25.6 °C 24.9 °C 1013.4 hPa Calm   1.6 km/h 96 % 0 mm
23:31 25.6 °C 24.9 °C 1013.4 hPa Calm   1.6 km/h 96 % 0 mm
23:32 25.6 °C 24.9 °C 1013.4 hPa Calm   1.6 km/h 96 % 0 mm
23:37 25.6 °C 24.9 °C 1013.4 hPa Calm   1.6 km/h 96 % 0 mm
23:42 25.6 °C 24.9 °C 1013.4 hPa Calm   1.6 km/h 96 % 0 mm
23:47 25.6 °C 24.9 °C 1013.8 hPa Calm   1.6 km/h 96 % 0 mm
23:52 25.5 °C 24.8 °C 1013.4 hPa Calm   1.6 km/h 96 % 0 mm
23:57 25.5 °C 24.8 °C 1013.4 hPa Calm   1.6 km/h 96 % 0 mm
Spring, Texas: Villages of Bridgestone
Compliments of Weather Underground - 2.75 mb

Script developed by  Jim McMurry - jmcmurry@mwt.net Adapted for the template by  Wim van der Kuil - Leuven-Template.eu

You find our weather info also at:

UK Metoffice

WeatherCloud

Weather Underground

Mid-South Weather Network

AWEKAS

Citizen Weather Observer Program (CWOP)

HAMweather, WeatherForYou, PWS Weather

Equipment we use:

Weather-station
Davis Vantage Vue

Weather-program
Meteohub

Weather-server
Debian 7.9 x86 (Guest)

Provider
DreamHost

Davis Vantage Vue

Meteohub

Debian 7.9 x86 (Guest)

DreamHost